TITAN 3C TRANSTAGE DEB, 2799

Orbit data source: Space-Track

TITAN 3C TRANSTAGE DEB, 2799 is space debris in LEO originally from a launch on Fri, 15 Oct 1965 UTC launched from the Air Force Eastern Test Range (AFETR). Debris objects in space refer to the collection of defunct objects orbiting the Earth. Examples of debris include non-operational satellites, rocket bodies, and fragments generated from explosions, collisions, or faulty payload assembly.

Loading next visibility...
Identifier
2799, 1965-082KX
Orbit
LEO
Country
Flag of USUS
Related business
Manufacturer
Unknown
Mission
Spacecraft
Bus & Motor
Unknown
Mass
Unknown
Launch date (UTC)
1965-10-15 (60 years ago)
Launch vehicle
Unknown
Launch site
Air Force Eastern Test Range (AFETR)
Object type
Payload
Rocket body
Debris
Shape & HBR
Unknown shape, 0.1 m
Radar Cross Section
Small (<0.1 m²)

Expand to show TLE details & history
Last TLE update: 1 day ago

TLE from 1 day ago
0 TITAN 3C TRANSTAGE DEB
1 02799U 65082KX  25352.43761172  .00001221  00000-0  17607-3 0  9996
2 02799  32.0572 353.5885 0033206  53.6418  99.9004 14.73623919129464
Epoch: 2025-12-18T10:30Z
TLE epoch observation values (Epoch: 2025-12-18T10:30:09.652Z)
Latitude
13.54013°
Longitude
-93.73081°
Altitude
651.499 km
Speed
7.533 km/s
True Right ascension
10h 04m 24s
True Declination
13° 27' 39"
Sunlit
Object was in full shadow at epoch
Visualization orbit readout
Latitude
Unknown
Longitude
Unknown
Altitude
Unknown
Speed
Unknown
Apparent Right ascension
Unknown
Apparent Declination
Unknown
Sunlit
N/A
Visualization observer readout
Local Sidereal Time
09:23:14
Azimuth
Unknown
Elevation
Unknown
Doppler factor
Unknown
Orbital elements
Apogee altitude
676.495 km
Perigee altitude
629.799 km
Semi-major axis
7,031.284 km
Eccentricity
0.00332
Inclination
32.0572°
RAAN
353.5885°
Arg. of periapsis
53.6418°
True anomaly
100.27498°
Mean anomaly
99.9004°
Eccentric anomaly
100.08772°
Mean motion
3.68121 °/min
Orbital period
97.79 mins
BSTAR
0.00017607

Documentation

Showing up to 5 results
|